Track STARLINK-1574 now! 10-day predictions STARLINK-1574 is classified as:
1 46062U 20055AM 21024.82335958 .00001932 00000-0 14855-3 0 9993 2 46062 53.0563 230.7635 0002223 81.4272 278.6969 15.06403779 27166